Time,TemperatureF,DewpointF,PressureIn,WindDirection,WindDirectionDegrees,WindSpeedMPH,WindSpeedGustMPH,Humidity,HourlyPrecipIn,Conditions,Clouds,dailyrainin,SoftwareType,DateUTC
2013-07-24 00:01:00,68.5,61.4,29.67,NNW,330,5.0,5.0,78,0.00,RA,,0.00,WeatherDisplay:10.37,2013-07-24 04:01:00,
2013-07-24 00:02:00,68.5,61.4,29.67,WNW,282,4.6,4.6,78,0.00,RA,,0.00,WeatherDisplay:10.37,2013-07-24 04:02:00,
2013-07-24 00:07:00,68.4,61.3,29.67,WNW,298,3.5,3.5,78,0.00,RA,,0.00,WeatherDisplay:10.37,2013-07-24 04:07:00,
2013-07-24 00:12:00,68.4,60.5,29.67,ESE,115,5.8,5.8,76,0.00,,,0.00,WeatherDisplay:10.37,2013-07-24 04:12:00,
2013-07-24 00:17:00,68.4,60.5,29.67,West,266,4.0,4.0,76,0.00,,,0.00,WeatherDisplay:10.37,2013-07-24 04:17:00,
2013-07-24 00:22:00,68.3,60.4,29.67,SW,224,9.2,9.2,76,0.00,,,0.00,WeatherDisplay:10.37,2013-07-24 04:22:00,
2013-07-24 00:27:00,68.3,60.1,29.67,WSW,256,6.9,6.9,75,0.00,,,0.00,WeatherDisplay:10.37,2013-07-24 04:27:00,
2013-07-24 00:32:00,68.2,60.3,29.67,West,270,3.5,3.5,76,0.00,,,0.00,WeatherDisplay:10.37,2013-07-24 04:32:00,
2013-07-24 00:37:00,68.2,60.3,29.67,West,276,3.5,3.5,76,0.00,,,0.00,WeatherDisplay:10.37,2013-07-24 04:37:00,
2013-07-24 00:42:00,68.1,60.2,29.67,WNW,297,3.5,3.5,76,0.00,,,0.00,WeatherDisplay:10.37,2013-07-24 04:42:00,
2013-07-24 00:47:00,68.0,60.2,29.67,WNW,283,3.5,3.5,76,0.00,,,0.00,WeatherDisplay:10.37,2013-07-24 04:47:00,
2013-07-24 00:52:00,67.9,59.7,29.68,WSW,251,4.0,4.0,75,0.00,,,0.00,WeatherDisplay:10.37,2013-07-24 04:52:00,
2013-07-24 00:57:00,67.8,60.0,29.68,West,269,3.5,3.5,76,0.00,,,0.00,WeatherDisplay:10.37,2013-07-24 04:57:00,
2013-07-24 01:02:00,67.6,59.8,29.68,SW,218,5.8,5.8,76,0.00,,,0.00,WeatherDisplay:10.37,2013-07-24 05:02:00,
2013-07-24 01:07:00,67.5,60.0,29.68,NE,34,3.5,3.5,77,0.00,,,0.00,WeatherDisplay:10.37,2013-07-24 05:07:00,
2013-07-24 01:12:00,67.5,60.0,29.68,NW,304,3.5,3.5,77,0.00,,,0.00,WeatherDisplay:10.37,2013-07-24 05:12:00,
2013-07-24 01:17:00,67.4,59.9,29.67,West,270,3.5,3.5,77,0.00,,,0.00,WeatherDisplay:10.37,2013-07-24 05:17:00,
2013-07-24 01:22:00,67.3,60.2,29.67,WNW,297,1.1,1.1,78,0.00,,,0.00,WeatherDisplay:10.37,2013-07-24 05:22:00,
2013-07-24 01:27:00,67.2,59.7,29.67,WNW,294,6.0,6.0,77,0.00,,,0.00,WeatherDisplay:10.37,2013-07-24 05:27:00,
2013-07-24 01:32:00,67.2,59.7,29.67,WSW,257,3.5,3.5,77,0.00,,,0.00,WeatherDisplay:10.37,2013-07-24 05:32:00,
2013-07-24 01:37:00,67.2,59.7,29.67,NE,49,5.0,5.0,77,0.00,,,0.00,WeatherDisplay:10.37,2013-07-24 05:37:00,
2013-07-24 01:42:00,67.1,59.6,29.67,WSW,247,8.1,8.1,77,0.00,,,0.00,WeatherDisplay:10.37,2013-07-24 05:42:00,
2013-07-24 01:47:00,67.1,59.6,29.67,NE,42,9.2,9.2,77,0.00,,,0.00,WeatherDisplay:10.37,2013-07-24 05:47:00,
2013-07-24 01:52:00,67.1,59.3,29.68,West,264,3.5,3.5,76,0.00,,,0.00,WeatherDisplay:10.37,2013-07-24 05:52:00,
2013-07-24 01:57:00,67.1,59.6,29.68,NNE,16,0.0,0.0,77,0.00,,,0.00,WeatherDisplay:10.37,2013-07-24 05:57:00,
2013-07-24 02:02:00,67.0,59.2,29.68,West,267,4.6,4.6,76,0.00,,,0.00,WeatherDisplay:10.37,2013-07-24 06:02:00,
2013-07-24 02:07:00,67.0,59.5,29.68,ENE,62,2.3,2.3,77,0.00,,,0.00,WeatherDisplay:10.37,2013-07-24 06:07:00,
2013-07-24 02:12:00,66.9,59.1,29.68,SE,145,1.1,1.1,76,0.00,,,0.00,WeatherDisplay:10.37,2013-07-24 06:12:00,
2013-07-24 02:17:00,66.9,59.5,29.68,NW,316,2.3,2.3,77,0.00,,,0.00,WeatherDisplay:10.37,2013-07-24 06:17:00,
2013-07-24 02:22:00,66.8,59.4,29.69,West,262,1.1,1.1,77,0.00,,,0.00,WeatherDisplay:10.37,2013-07-24 06:22:00,
2013-07-24 02:27:00,66.8,59.4,29.69,West,266,4.6,4.6,77,0.00,,,0.00,WeatherDisplay:10.37,2013-07-24 06:27:00,
2013-07-24 02:32:00,66.7,59.3,29.69,NW,319,3.0,3.0,77,0.00,,,0.00,WeatherDisplay:10.37,2013-07-24 06:32:00,
2013-07-24 02:37:00,66.6,59.2,29.69,SW,217,1.1,1.1,77,0.00,,,0.00,WeatherDisplay:10.37,2013-07-24 06:37:00,
2013-07-24 02:42:00,66.6,59.5,29.69,NNE,25,1.1,1.1,78,0.00,,,0.00,WeatherDisplay:10.37,2013-07-24 06:42:00,
2013-07-24 02:47:00,66.6,59.2,29.69,WNW,297,1.1,1.1,77,0.00,,,0.00,WeatherDisplay:10.37,2013-07-24 06:47:00,
2013-07-24 02:52:00,66.4,59.3,29.69,WNW,289,1.0,1.0,78,0.00,,,0.00,WeatherDisplay:10.37,2013-07-24 06:52:00,
2013-07-24 02:57:00,66.4,59.3,29.69,WNW,293,2.0,2.0,78,0.00,,,0.00,WeatherDisplay:10.37,2013-07-24 06:57:00,
2013-07-24 03:02:00,66.3,59.6,29.69,West,271,0.0,0.0,79,0.00,,,0.00,WeatherDisplay:10.37,2013-07-24 07:02:00,
2013-07-24 03:07:00,66.2,59.5,29.69,WNW,295,2.0,2.0,79,0.00,,,0.00,WeatherDisplay:10.37,2013-07-24 07:07:00,
2013-07-24 03:12:00,66.1,59.7,29.70,NW,321,1.1,1.1,80,0.00,,,0.00,WeatherDisplay:10.37,2013-07-24 07:12:00,
2013-07-24 03:17:00,66.0,58.9,29.70,NW,318,5.8,5.8,78,0.00,,,0.00,WeatherDisplay:10.37,2013-07-24 07:17:00,
2013-07-24 03:22:00,66.0,59.3,29.70,NNE,22,1.1,1.1,79,0.00,,,0.00,WeatherDisplay:10.37,2013-07-24 07:22:00,
2013-07-24 03:27:00,66.0,59.3,29.70,WNW,287,2.3,2.3,79,0.00,,,0.00,WeatherDisplay:10.37,2013-07-24 07:27:00,
2013-07-24 03:32:00,66.0,58.9,29.70,North,9,1.1,1.1,78,0.00,,,0.00,WeatherDisplay:10.37,2013-07-24 07:32:00,
2013-07-24 03:37:00,65.9,59.6,29.70,SW,233,2.3,2.3,80,0.00,,,0.00,WeatherDisplay:10.37,2013-07-24 07:37:00,
2013-07-24 03:42:00,65.9,59.2,29.70,SSW,194,0.0,0.4,79,0.00,,,0.00,WeatherDisplay:10.37,2013-07-24 07:42:00,
2013-07-24 03:48:00,65.9,59.2,29.70,WNW,288,3.5,3.5,79,0.00,,,0.00,WeatherDisplay:10.37,2013-07-24 07:48:00,
2013-07-24 03:53:00,65.9,59.2,29.70,SW,232,0.0,0.1,79,0.00,,,0.00,WeatherDisplay:10.37,2013-07-24 07:53:00,
2013-07-24 03:58:00,65.8,59.1,29.70,WSW,253,5.8,5.8,79,0.00,,,0.00,WeatherDisplay:10.37,2013-07-24 07:58:00,
2013-07-24 04:03:00,65.8,59.5,29.70,North,9,4.0,4.0,80,0.00,,,0.00,WeatherDisplay:10.37,2013-07-24 08:03:00,
2013-07-24 04:08:00,65.7,59.4,29.70,WNW,290,2.3,0.0,80,0.00,,,0.00,WeatherDisplay:10.37,2013-07-24 08:08:00,
2013-07-24 04:13:00,65.6,59.3,29.70,East,83,2.3,2.3,80,0.00,,,0.00,WeatherDisplay:10.37,2013-07-24 08:13:00,
2013-07-24 04:14:00,65.6,59.3,29.70,WNW,291,1.1,0.0,80,0.00,,,0.00,WeatherDisplay:10.37,2013-07-24 08:14:00,
2013-07-24 04:19:00,65.5,59.2,29.70,North,360,3.5,3.5,80,0.00,,,0.00,WeatherDisplay:10.37,2013-07-24 08:19:00,
2013-07-24 04:24:00,65.5,59.5,29.70,West,278,3.5,3.5,81,0.00,,,0.00,WeatherDisplay:10.37,2013-07-24 08:24:00,
2013-07-24 04:29:00,65.4,59.4,29.71,NW,316,4.6,4.6,81,0.00,,,0.00,WeatherDisplay:10.37,2013-07-24 08:29:00,
2013-07-24 04:34:00,65.4,59.4,29.71,North,353,3.5,3.5,81,0.00,,,0.00,WeatherDisplay:10.37,2013-07-24 08:34:00,
2013-07-24 04:39:00,65.3,59.7,29.71,North,4,3.5,3.5,82,0.00,,,0.00,WeatherDisplay:10.37,2013-07-24 08:39:00,
2013-07-24 04:44:00,65.3,59.7,29.71,West,274,1.1,0.0,82,0.00,,,0.00,WeatherDisplay:10.37,2013-07-24 08:44:00,
2013-07-24 04:49:00,65.2,60.2,29.71,NW,304,3.5,3.5,84,0.00,,,0.00,WeatherDisplay:10.37,2013-07-24 08:49:00,
2013-07-24 04:54:00,65.2,59.9,29.71,WSW,255,2.3,2.3,83,0.00,,,0.00,WeatherDisplay:10.37,2013-07-24 08:54:00,
2013-07-24 04:59:00,65.1,59.8,29.71,NW,315,3.5,3.5,83,0.00,,,0.00,WeatherDisplay:10.37,2013-07-24 08:59:00,
2013-07-24 05:04:00,65.0,59.7,29.72,West,270,5.8,5.8,83,0.00,,,0.00,WeatherDisplay:10.37,2013-07-24 09:04:00,
2013-07-24 05:10:00,65.0,59.4,29.72,WSW,238,9.2,9.2,82,0.00,,,0.00,WeatherDisplay:10.37,2013-07-24 09:10:00,
2013-07-24 05:15:00,64.9,59.6,29.72,WNW,293,7.0,7.0,83,0.00,,,0.00,WeatherDisplay:10.37,2013-07-24 09:15:00,
2013-07-24 05:20:00,64.7,59.1,29.72,North,11,5.0,5.0,82,0.00,,,0.00,WeatherDisplay:10.37,2013-07-24 09:20:00,
2013-07-24 05:25:00,64.7,59.1,29.72,SSW,209,4.6,4.6,82,0.00,,,0.00,WeatherDisplay:10.37,2013-07-24 09:25:00,
2013-07-24 05:30:00,64.6,59.0,29.72,WSW,253,2.3,2.3,82,0.00,,,0.00,WeatherDisplay:10.37,2013-07-24 09:30:00,
2013-07-24 05:35:00,64.5,59.2,29.73,WNW,288,2.3,2.3,83,0.00,,,0.00,WeatherDisplay:10.37,2013-07-24 09:35:00,
2013-07-24 05:40:00,64.5,58.9,29.73,East,94,6.9,6.9,82,0.00,,,0.00,WeatherDisplay:10.37,2013-07-24 09:40:00,
2013-07-24 05:45:00,64.5,58.9,29.73,NNW,336,2.0,2.0,82,0.00,,,0.00,WeatherDisplay:10.37,2013-07-24 09:45:00,
2013-07-24 05:50:00,64.4,59.1,29.73,NNW,330,4.6,4.6,83,0.00,,,0.00,WeatherDisplay:10.37,2013-07-24 09:50:00,
2013-07-24 05:55:00,64.3,58.7,29.74,WSW,251,5.8,5.8,82,0.00,,,0.00,WeatherDisplay:10.37,2013-07-24 09:55:00,
2013-07-24 06:00:00,64.2,58.6,29.74,NNW,343,5.8,5.8,82,0.00,,,0.00,WeatherDisplay:10.37,2013-07-24 10:00:00,
2013-07-24 06:05:00,64.1,58.1,29.74,WSW,249,8.1,8.1,81,0.00,,,0.00,WeatherDisplay:10.37,2013-07-24 10:05:00,
2013-07-24 06:10:00,63.9,58.3,29.74,SSE,165,6.9,6.9,82,0.00,,,0.00,WeatherDisplay:10.37,2013-07-24 10:10:00,
2013-07-24 06:15:00,63.8,58.2,29.74,NNE,33,2.3,2.3,82,0.00,,,0.00,WeatherDisplay:10.37,2013-07-24 10:15:00,
2013-07-24 06:20:00,63.7,58.1,29.75,NE,51,3.5,3.5,82,0.00,,,0.00,WeatherDisplay:10.37,2013-07-24 10:20:00,
2013-07-24 06:25:00,63.5,57.9,29.75,NW,315,4.0,4.0,82,0.00,,,0.00,WeatherDisplay:10.37,2013-07-24 10:25:00,
2013-07-24 06:30:00,63.3,57.7,29.75,WNW,300,6.9,6.9,82,0.00,,,0.00,WeatherDisplay:10.37,2013-07-24 10:30:00,
2013-07-24 06:35:00,63.2,57.6,29.75,SW,225,5.8,5.8,82,0.00,,,0.00,WeatherDisplay:10.37,2013-07-24 10:35:00,
2013-07-24 06:40:00,63.0,57.4,29.76,WSW,243,4.6,4.6,82,0.00,,,0.00,WeatherDisplay:10.37,2013-07-24 10:40:00,
2013-07-24 06:45:00,62.9,57.3,29.76,SSE,158,5.8,5.8,82,0.00,,,0.00,WeatherDisplay:10.37,2013-07-24 10:45:00,
2013-07-24 06:50:00,62.7,57.1,29.77,NW,313,4.6,4.6,82,0.00,,,0.00,WeatherDisplay:10.37,2013-07-24 10:50:00,
2013-07-24 06:55:00,62.6,57.0,29.77,WNW,285,5.8,5.8,82,0.00,,,0.00,WeatherDisplay:10.37,2013-07-24 10:55:00,
2013-07-24 07:00:00,62.3,56.7,29.77,WSW,246,4.6,4.6,82,0.00,,,0.00,WeatherDisplay:10.37,2013-07-24 11:00:00,
2013-07-24 07:05:00,62.1,56.2,29.77,West,259,4.6,4.6,81,0.00,,,0.00,WeatherDisplay:10.37,2013-07-24 11:05:00,
2013-07-24 07:10:00,62.0,56.1,29.77,SW,215,9.0,9.0,81,0.00,,,0.00,WeatherDisplay:10.37,2013-07-24 11:10:00,
2013-07-24 07:15:00,61.8,55.9,29.78,West,262,5.0,5.0,81,0.00,,,0.00,WeatherDisplay:10.37,2013-07-24 11:15:00,
2013-07-24 07:20:00,61.7,55.8,29.78,WSW,256,3.5,3.5,81,0.00,,,0.00,WeatherDisplay:10.37,2013-07-24 11:20:00,
2013-07-24 07:25:00,61.7,55.8,29.79,SSW,208,2.3,2.3,81,0.00,,,0.00,WeatherDisplay:10.37,2013-07-24 11:25:00,
2013-07-24 07:30:00,61.6,55.7,29.79,NE,40,5.8,5.8,81,0.00,,,0.00,WeatherDisplay:10.37,2013-07-24 11:30:00,
2013-07-24 07:35:00,61.7,56.1,29.79,WSW,253,1.1,1.1,82,0.00,,,0.00,WeatherDisplay:10.37,2013-07-24 11:35:00,
2013-07-24 07:40:00,61.8,55.9,29.79,West,260,1.1,1.1,81,0.00,,,0.00,WeatherDisplay:10.37,2013-07-24 11:40:00,
2013-07-24 07:45:00,61.9,55.7,29.80,WNW,288,5.8,5.8,80,0.00,,,0.00,WeatherDisplay:10.37,2013-07-24 11:45:00,
2013-07-24 07:50:00,61.8,55.6,29.80,NW,311,4.6,4.6,80,0.00,,,0.00,WeatherDisplay:10.37,2013-07-24 11:50:00,
2013-07-24 07:55:00,61.6,55.7,29.80,West,262,9.2,9.2,81,0.00,,,0.00,WeatherDisplay:10.37,2013-07-24 11:55:00,
2013-07-24 08:00:00,61.6,55.7,29.80,North,360,4.6,4.6,81,0.00,,,0.00,WeatherDisplay:10.37,2013-07-24 12:00:00,
2013-07-24 08:05:00,61.4,55.2,29.81,WSW,243,6.9,6.9,80,0.00,CLR,,0.00,WeatherDisplay:10.37,2013-07-24 12:05:00,
2013-07-24 08:10:00,61.3,55.1,29.81,WNW,297,6.9,6.9,80,0.00,CLR,,0.00,WeatherDisplay:10.37,2013-07-24 12:10:00,
2013-07-24 08:15:00,61.2,55.3,29.81,West,266,10.4,10.4,81,0.00,CLR,,0.00,WeatherDisplay:10.37,2013-07-24 12:15:00,
2013-07-24 08:20:00,60.9,55.0,29.81,WNW,282,6.9,6.9,81,0.00,CLR,,0.00,WeatherDisplay:10.37,2013-07-24 12:20:00,
2013-07-24 08:26:00,60.7,54.8,29.82,North,360,4.6,4.6,81,0.00,CLR,,0.00,WeatherDisplay:10.37,2013-07-24 12:26:00,
2013-07-24 08:31:00,60.6,55.1,29.82,West,277,2.3,2.3,82,0.00,CLR,,0.00,WeatherDisplay:10.37,2013-07-24 12:31:00,
2013-07-24 08:36:00,60.5,55.0,29.83,NNW,328,5.0,5.0,82,0.00,CLR,,0.00,WeatherDisplay:10.37,2013-07-24 12:36:00,
2013-07-24 08:41:00,60.4,54.9,29.83,WSW,243,4.0,4.0,82,0.00,CLR,,0.00,WeatherDisplay:10.37,2013-07-24 12:41:00,
2013-07-24 08:46:00,60.4,54.5,29.83,East,95,3.5,3.5,81,0.00,CLR,,0.00,WeatherDisplay:10.37,2013-07-24 12:46:00,
2013-07-24 08:51:00,60.5,54.6,29.83,North,354,3.5,3.5,81,0.00,CLR,,0.00,WeatherDisplay:10.37,2013-07-24 12:51:00,
2013-07-24 08:56:00,60.5,54.3,29.84,NE,37,4.0,4.0,80,0.00,CLR,,0.00,WeatherDisplay:10.37,2013-07-24 12:56:00,
2013-07-24 09:01:00,60.6,54.0,29.84,NW,312,4.6,4.6,79,0.00,CLR,,0.00,WeatherDisplay:10.37,2013-07-24 13:01:00,
2013-07-24 09:06:00,60.6,53.3,29.84,ESE,115,6.9,6.9,77,0.00,CLR,,0.00,WeatherDisplay:10.37,2013-07-24 13:06:00,
2013-07-24 09:11:00,60.7,53.8,29.84,West,273,3.5,3.5,78,0.00,CLR,,0.00,WeatherDisplay:10.37,2013-07-24 13:11:00,
2013-07-24 09:16:00,60.6,53.3,29.85,SW,227,3.5,3.5,77,0.00,CLR,,0.00,WeatherDisplay:10.37,2013-07-24 13:16:00,
2013-07-24 09:21:00,60.4,53.2,29.85,West,271,3.5,3.5,77,0.00,CLR,,0.00,WeatherDisplay:10.37,2013-07-24 13:21:00,
2013-07-24 09:26:00,60.3,52.7,29.85,WSW,253,1.1,1.5,76,0.00,CLR,,0.00,WeatherDisplay:10.37,2013-07-24 13:26:00,
2013-07-24 09:31:00,60.2,53.0,29.85,West,273,2.3,2.3,77,0.00,CLR,,0.00,WeatherDisplay:10.37,2013-07-24 13:31:00,
2013-07-24 09:36:00,60.3,53.4,29.85,West,270,2.3,2.3,78,0.00,CLR,,0.00,WeatherDisplay:10.37,2013-07-24 13:36:00,
2013-07-24 09:41:00,60.3,53.4,29.85,SW,224,3.5,3.5,78,0.00,CLR,,0.00,WeatherDisplay:10.37,2013-07-24 13:41:00,
2013-07-24 09:46:00,60.3,53.4,29.85,SW,219,3.5,3.5,78,0.00,CLR,,0.00,WeatherDisplay:10.37,2013-07-24 13:46:00,
2013-07-24 09:51:00,60.3,53.1,29.86,WSW,238,8.1,8.1,77,0.00,CLR,,0.00,WeatherDisplay:10.37,2013-07-24 13:51:00,
2013-07-24 09:56:00,60.3,52.7,29.86,West,259,4.0,4.0,76,0.00,CLR,,0.00,WeatherDisplay:10.37,2013-07-24 13:56:00,
2013-07-24 10:01:00,60.1,52.9,29.87,WNW,282,2.0,2.0,77,0.00,CLR,,0.00,WeatherDisplay:10.37,2013-07-24 14:01:00,
2013-07-24 10:06:00,60.1,52.9,29.87,WSW,252,5.8,5.8,77,0.00,CLR,,0.00,WeatherDisplay:10.37,2013-07-24 14:06:00,
2013-07-24 10:11:00,60.1,52.5,29.88,WNW,292,5.8,5.8,76,0.00,CLR,,0.00,WeatherDisplay:10.37,2013-07-24 14:11:00,
2013-07-24 10:16:00,60.1,52.5,29.87,WNW,302,2.3,2.3,76,0.00,CLR,,0.00,WeatherDisplay:10.37,2013-07-24 14:16:00,
2013-07-24 10:21:00,60.2,52.6,29.87,West,276,4.0,4.0,76,0.00,CLR,,0.00,WeatherDisplay:10.37,2013-07-24 14:21:00,
2013-07-24 10:26:00,60.2,52.6,29.87,WSW,243,3.5,3.5,76,0.00,CLR,,0.00,WeatherDisplay:10.37,2013-07-24 14:26:00,
2013-07-24 10:31:00,60.4,53.2,29.88,West,267,6.0,6.0,77,0.00,CLR,,0.00,WeatherDisplay:10.37,2013-07-24 14:31:00,
2013-07-24 10:36:00,60.8,53.5,29.88,NNE,26,3.5,3.5,77,0.00,CLR,,0.00,WeatherDisplay:10.37,2013-07-24 14:36:00,
2013-07-24 10:41:00,61.7,54.1,29.88,West,265,7.0,7.0,76,0.00,CLR,,0.00,WeatherDisplay:10.37,2013-07-24 14:41:00,
2013-07-24 10:47:00,62.6,54.6,29.89,NW,323,3.5,3.5,75,0.00,CLR,,0.00,WeatherDisplay:10.37,2013-07-24 14:47:00,
2013-07-24 10:52:00,63.5,55.1,29.89,NE,53,7.0,7.0,74,0.00,CLR,,0.00,WeatherDisplay:10.37,2013-07-24 14:52:00,
2013-07-24 10:56:00,63.7,54.5,29.89,East,80,5.8,5.8,72,0.00,CLR,,0.00,WeatherDisplay:10.37,2013-07-24 14:56:00,
2013-07-24 11:01:00,63.4,54.6,29.89,SSE,158,0.0,0.1,73,0.00,CLR,,0.00,WeatherDisplay:10.37,2013-07-24 15:01:00,
2013-07-24 11:06:00,62.5,53.7,29.90,WSW,240,4.0,4.0,73,0.00,CLR,,0.00,WeatherDisplay:10.37,2013-07-24 15:06:00,
2013-07-24 11:12:00,62.0,54.0,29.90,NNW,333,3.5,3.5,75,0.00,CLR,,0.00,WeatherDisplay:10.37,2013-07-24 15:12:00,
2013-07-24 11:17:00,61.4,53.0,29.90,ENE,68,5.8,5.8,74,0.00,CLR,,0.00,WeatherDisplay:10.37,2013-07-24 15:17:00,
2013-07-24 11:22:00,61.3,53.3,29.90,West,273,3.5,3.5,75,0.00,CLR,,0.00,WeatherDisplay:10.37,2013-07-24 15:22:00,
2013-07-24 11:27:00,61.6,53.2,29.90,NNW,341,3.5,3.5,74,0.00,CLR,,0.00,WeatherDisplay:10.37,2013-07-24 15:27:00,
2013-07-24 11:32:00,62.2,53.4,29.90,WSW,240,3.5,3.5,73,0.00,CLR,,0.00,WeatherDisplay:10.37,2013-07-24 15:32:00,
2013-07-24 11:37:00,63.0,53.1,29.90,SSE,148,4.6,4.6,70,0.00,CLR,,0.00,WeatherDisplay:10.37,2013-07-24 15:37:00,
2013-07-24 11:42:00,63.0,53.1,29.91,West,264,3.5,3.5,70,0.00,CLR,,0.00,WeatherDisplay:10.37,2013-07-24 15:42:00,
2013-07-24 11:47:00,63.0,54.2,29.91,SW,233,2.0,2.0,73,0.00,CLR,,0.00,WeatherDisplay:10.37,2013-07-24 15:47:00,
2013-07-24 11:52:00,63.3,54.1,29.91,WSW,243,3.5,3.5,72,0.00,CLR,,0.00,WeatherDisplay:10.37,2013-07-24 15:52:00,
2013-07-24 11:57:00,63.4,53.0,29.92,SSW,205,4.6,4.6,69,0.00,CLR,,0.00,WeatherDisplay:10.37,2013-07-24 15:57:00,
2013-07-24 12:02:00,63.4,53.8,29.92,West,263,2.3,2.3,71,0.00,CLR,,0.00,WeatherDisplay:10.37,2013-07-24 16:02:00,
2013-07-24 12:07:00,63.7,53.3,29.92,NNW,328,4.0,4.0,69,0.00,CLR,,0.00,WeatherDisplay:10.37,2013-07-24 16:07:00,
2013-07-24 12:12:00,63.4,52.2,29.92,North,4,3.5,3.5,67,0.00,CLR,,0.00,WeatherDisplay:10.37,2013-07-24 16:12:00,
2013-07-24 12:17:00,62.9,52.6,29.93,NNW,336,2.3,2.4,69,0.00,CLR,,0.00,WeatherDisplay:10.37,2013-07-24 16:17:00,
2013-07-24 12:22:00,62.5,53.0,29.93,West,274,2.3,2.4,71,0.00,CLR,,0.00,WeatherDisplay:10.37,2013-07-24 16:22:00,
2013-07-24 12:27:00,62.4,52.9,29.93,SW,225,3.5,3.5,71,0.00,CLR,,0.00,WeatherDisplay:10.37,2013-07-24 16:27:00,
2013-07-24 12:32:00,62.6,53.1,29.93,North,352,3.5,3.5,71,0.00,CLR,,0.00,WeatherDisplay:10.37,2013-07-24 16:32:00,
2013-07-24 12:37:00,62.7,52.8,29.93,WSW,239,3.5,3.5,70,0.00,CLR,,0.00,WeatherDisplay:10.37,2013-07-24 16:37:00,
2013-07-24 12:42:00,62.4,52.9,29.94,North,3,5.8,5.8,71,0.00,CLR,,0.00,WeatherDisplay:10.37,2013-07-24 16:42:00,
2013-07-24 12:47:00,62.2,53.1,29.94,WSW,255,4.0,4.0,72,0.00,CLR,,0.00,WeatherDisplay:10.37,2013-07-24 16:47:00,
2013-07-24 12:52:00,62.3,53.5,29.94,NNE,20,2.0,2.0,73,0.00,CLR,,0.00,WeatherDisplay:10.37,2013-07-24 16:52:00,
2013-07-24 12:57:00,62.5,53.7,29.94,West,263,5.0,5.0,73,0.00,CLR,,0.00,WeatherDisplay:10.37,2013-07-24 16:57:00,
2013-07-24 13:02:00,62.4,53.6,29.94,WSW,250,3.5,3.5,73,0.00,CLR,,0.00,WeatherDisplay:10.37,2013-07-24 17:02:00,
2013-07-24 13:07:00,62.5,53.7,29.94,WNW,295,2.3,2.3,73,0.00,CLR,,0.00,WeatherDisplay:10.37,2013-07-24 17:07:00,
2013-07-24 13:12:00,63.3,55.2,29.94,ESE,117,2.0,2.0,75,0.00,CLR,,0.00,WeatherDisplay:10.37,2013-07-24 17:12:00,
2013-07-24 13:17:00,63.9,53.9,29.94,NNE,29,4.6,4.6,70,0.00,CLR,,0.00,WeatherDisplay:10.37,2013-07-24 17:17:00,
2013-07-24 13:22:00,64.1,54.5,29.94,WSW,242,2.3,2.3,71,0.00,CLR,,0.00,WeatherDisplay:10.37,2013-07-24 17:22:00,
2013-07-24 13:28:00,64.2,54.2,29.94,WNW,295,4.6,4.6,70,0.00,CLR,,0.00,WeatherDisplay:10.37,2013-07-24 17:28:00,
2013-07-24 13:33:00,64.6,54.2,29.93,NNE,25,4.6,4.6,69,0.00,CLR,,0.00,WeatherDisplay:10.37,2013-07-24 17:33:00,
2013-07-24 13:38:00,64.5,52.9,29.94,SSW,212,8.1,8.1,66,0.00,CLR,,0.00,WeatherDisplay:10.37,2013-07-24 17:38:00,
2013-07-24 13:43:00,64.5,54.9,29.93,WSW,249,6.0,6.0,71,0.00,CLR,,0.00,WeatherDisplay:10.37,2013-07-24 17:43:00,
2013-07-24 13:48:00,64.2,53.8,29.93,SSW,204,5.8,5.8,69,0.00,CLR,,0.00,WeatherDisplay:10.37,2013-07-24 17:48:00,
2013-07-24 13:53:00,64.6,54.2,29.93,NNE,22,3.5,3.5,69,0.00,CLR,,0.00,WeatherDisplay:10.37,2013-07-24 17:53:00,
2013-07-24 13:58:00,64.8,55.2,29.93,SW,218,2.3,2.3,71,0.00,CLR,,0.00,WeatherDisplay:10.37,2013-07-24 17:58:00,
2013-07-24 14:03:00,65.3,54.1,29.93,WNW,288,7.0,7.0,67,0.00,CLR,,0.00,WeatherDisplay:10.37,2013-07-24 18:03:00,
2013-07-24 14:08:00,64.7,53.5,29.93,SSE,152,6.9,6.9,67,0.00,CLR,,0.00,WeatherDisplay:10.37,2013-07-24 18:08:00,
2013-07-24 14:13:00,64.5,54.5,29.94,SW,229,3.5,3.5,70,0.00,CLR,,0.00,WeatherDisplay:10.37,2013-07-24 18:13:00,
2013-07-24 14:18:00,64.1,53.3,29.94,North,352,5.8,5.8,68,0.00,CLR,,0.00,WeatherDisplay:10.37,2013-07-24 18:18:00,
2013-07-24 14:23:00,63.9,53.9,29.94,WSW,249,3.5,3.5,70,0.00,CLR,,0.00,WeatherDisplay:10.37,2013-07-24 18:23:00,
2013-07-24 14:28:00,63.9,54.3,29.94,East,83,3.5,3.5,71,0.00,CLR,,0.00,WeatherDisplay:10.37,2013-07-24 18:28:00,
2013-07-24 14:33:00,63.7,53.7,29.94,WSW,255,3.5,3.5,70,0.00,CLR,,0.00,WeatherDisplay:10.37,2013-07-24 18:33:00,
2013-07-24 14:38:00,63.8,54.2,29.94,WSW,255,2.3,2.3,71,0.00,CLR,,0.00,WeatherDisplay:10.37,2013-07-24 18:38:00,
2013-07-24 14:43:00,64.3,54.3,29.94,West,277,4.6,4.6,70,0.00,CLR,,0.00,WeatherDisplay:10.37,2013-07-24 18:43:00,
2013-07-24 14:48:00,63.8,53.4,29.94,West,264,3.5,3.5,69,0.00,CLR,,0.00,WeatherDisplay:10.37,2013-07-24 18:48:00,
2013-07-24 14:53:00,63.5,53.5,29.94,NW,319,3.5,3.5,70,0.00,CLR,,0.00,WeatherDisplay:10.37,2013-07-24 18:53:00,
2013-07-24 14:58:00,63.7,53.7,29.94,SSW,203,5.8,5.8,70,0.00,CLR,,0.00,WeatherDisplay:10.37,2013-07-24 18:58:00,
2013-07-24 15:04:00,63.5,53.1,29.95,ESE,111,3.5,3.5,69,0.00,CLR,,0.00,WeatherDisplay:10.37,2013-07-24 19:04:00,
2013-07-24 15:09:00,63.3,53.7,29.94,NE,37,3.5,3.5,71,0.00,CLR,,0.00,WeatherDisplay:10.37,2013-07-24 19:09:00,
2013-07-24 15:14:00,63.8,53.0,29.94,NW,304,4.0,4.0,68,0.00,CLR,,0.00,WeatherDisplay:10.37,2013-07-24 19:14:00,
2013-07-24 15:19:00,63.8,53.8,29.95,East,95,3.5,3.5,70,0.00,CLR,,0.00,WeatherDisplay:10.37,2013-07-24 19:19:00,
2013-07-24 15:24:00,63.7,52.9,29.95,West,259,4.0,4.0,68,0.00,CLR,,0.00,WeatherDisplay:10.37,2013-07-24 19:24:00,
2013-07-24 15:29:00,63.8,53.4,29.95,West,263,3.5,3.5,69,0.00,CLR,,0.00,WeatherDisplay:10.37,2013-07-24 19:29:00,
2013-07-24 15:34:00,63.7,52.9,29.95,East,96,5.8,5.8,68,0.00,CLR,,0.00,WeatherDisplay:10.37,2013-07-24 19:34:00,
2013-07-24 15:39:00,63.6,52.0,29.94,South,183,2.3,2.3,66,0.00,CLR,,0.00,WeatherDisplay:10.37,2013-07-24 19:39:00,
2013-07-24 15:44:00,63.9,51.9,29.95,NW,312,2.3,2.8,65,0.00,CLR,,0.00,WeatherDisplay:10.37,2013-07-24 19:44:00,
2013-07-24 15:49:00,64.3,52.7,29.95,North,353,6.0,6.0,66,0.00,CLR,,0.00,WeatherDisplay:10.37,2013-07-24 19:49:00,
2013-07-24 15:54:00,64.1,51.7,29.95,NNW,333,4.6,4.6,64,0.00,CLR,,0.00,WeatherDisplay:10.37,2013-07-24 19:54:00,
2013-07-24 15:59:00,64.1,52.5,29.95,West,266,3.5,3.5,66,0.00,CLR,,0.00,WeatherDisplay:10.37,2013-07-24 19:59:00,
2013-07-24 16:04:00,64.8,52.3,29.95,WSW,253,3.0,3.0,64,0.00,CLR,,0.00,WeatherDisplay:10.37,2013-07-24 20:04:00,
2013-07-24 16:09:00,64.8,51.9,29.95,NW,312,2.0,2.0,63,0.00,CLR,,0.00,WeatherDisplay:10.37,2013-07-24 20:09:00,
2013-07-24 16:14:00,64.7,51.8,29.95,WSW,249,4.6,4.6,63,0.00,CLR,,0.00,WeatherDisplay:10.37,2013-07-24 20:14:00,
2013-07-24 16:19:00,65.2,51.4,29.95,NE,53,5.8,5.8,61,0.00,CLR,,0.00,WeatherDisplay:10.37,2013-07-24 20:19:00,
2013-07-24 16:24:00,65.6,50.4,29.95,ESE,104,5.8,5.8,58,0.00,CLR,,0.00,WeatherDisplay:10.37,2013-07-24 20:24:00,
2013-07-24 16:29:00,65.9,51.2,29.95,SW,228,5.8,5.8,59,0.00,CLR,,0.00,WeatherDisplay:10.37,2013-07-24 20:29:00,
2013-07-24 16:34:00,65.9,52.1,29.95,ESE,113,4.0,4.0,61,0.00,CLR,,0.00,WeatherDisplay:10.37,2013-07-24 20:34:00,
2013-07-24 16:39:00,65.9,51.6,29.95,NW,321,5.8,5.8,60,0.00,CLR,,0.00,WeatherDisplay:10.37,2013-07-24 20:39:00,
2013-07-24 16:44:00,66.1,52.3,29.95,ESE,121,4.0,4.0,61,0.00,CLR,,0.00,WeatherDisplay:10.37,2013-07-24 20:44:00,
2013-07-24 16:49:00,66.1,52.3,29.96,WSW,250,4.6,4.6,61,0.00,CLR,,0.00,WeatherDisplay:10.37,2013-07-24 20:49:00,
2013-07-24 16:54:00,65.6,51.3,29.95,WNW,283,4.0,4.0,60,0.00,CLR,,0.00,WeatherDisplay:10.37,2013-07-24 20:54:00,
2013-07-24 16:59:00,65.2,52.3,29.96,WSW,257,3.0,3.0,63,0.00,CLR,,0.00,WeatherDisplay:10.37,2013-07-24 20:59:00,
2013-07-24 17:04:00,65.2,51.8,29.96,SW,228,4.6,4.6,62,0.00,CLR,,0.00,WeatherDisplay:10.37,2013-07-24 21:04:00,
2013-07-24 17:09:00,65.5,52.1,29.96,NNW,343,3.5,3.5,62,0.00,CLR,,0.00,WeatherDisplay:10.37,2013-07-24 21:09:00,
2013-07-24 17:14:00,65.8,52.0,29.96,WNW,297,5.8,5.8,61,0.00,CLR,,0.00,WeatherDisplay:10.37,2013-07-24 21:14:00,
2013-07-24 17:20:00,65.9,52.1,29.96,WSW,246,1.1,1.1,61,0.00,CLR,,0.00,WeatherDisplay:10.37,2013-07-24 21:20:00,
2013-07-24 17:25:00,65.9,52.1,29.96,WSW,256,3.5,3.5,61,0.00,CLR,,0.00,WeatherDisplay:10.37,2013-07-24 21:25:00,
2013-07-24 17:30:00,65.8,51.5,29.96,West,266,3.5,3.5,60,0.00,CLR,,0.00,WeatherDisplay:10.37,2013-07-24 21:30:00,
2013-07-24 17:35:00,66.0,52.2,29.96,NNW,329,2.3,2.3,61,0.00,CLR,,0.00,WeatherDisplay:10.37,2013-07-24 21:35:00,
2013-07-24 17:40:00,66.4,53.4,29.97,SW,236,4.0,4.0,63,0.00,CLR,,0.00,WeatherDisplay:10.37,2013-07-24 21:40:00,
2013-07-24 17:45:00,66.4,52.5,29.96,WSW,244,3.5,3.5,61,0.00,CLR,,0.00,WeatherDisplay:10.37,2013-07-24 21:45:00,
2013-07-24 17:50:00,66.3,52.0,29.96,North,360,2.3,2.3,60,0.00,CLR,,0.00,WeatherDisplay:10.37,2013-07-24 21:50:00,
2013-07-24 17:55:00,66.2,53.2,29.96,WSW,248,3.5,3.5,63,0.00,CLR,,0.00,WeatherDisplay:10.37,2013-07-24 21:55:00,
2013-07-24 18:00:00,65.9,52.9,29.96,West,278,3.5,3.5,63,0.00,CLR,,0.00,WeatherDisplay:10.37,2013-07-24 22:00:00,
2013-07-24 18:05:00,66.2,53.2,29.96,NNW,338,4.6,4.6,63,0.00,CLR,,0.00,WeatherDisplay:10.37,2013-07-24 22:05:00,
2013-07-24 18:10:00,66.1,53.1,29.96,NW,314,3.5,3.5,63,0.00,CLR,,0.00,WeatherDisplay:10.37,2013-07-24 22:10:00,
2013-07-24 18:15:00,65.8,52.9,29.97,West,280,2.3,2.3,63,0.00,CLR,,0.00,WeatherDisplay:10.37,2013-07-24 22:15:00,
2013-07-24 18:20:00,65.6,52.7,29.97,NNE,25,3.5,3.5,63,0.00,CLR,,0.00,WeatherDisplay:10.37,2013-07-24 22:20:00,
2013-07-24 18:25:00,65.7,52.8,29.97,East,85,3.5,3.5,63,0.00,CLR,,0.00,WeatherDisplay:10.37,2013-07-24 22:25:00,
2013-07-24 18:30:00,65.5,53.0,29.97,ENE,77,1.1,1.1,64,0.00,CLR,,0.00,WeatherDisplay:10.37,2013-07-24 22:30:00,
2013-07-24 18:35:00,65.8,52.4,29.97,West,278,3.5,3.5,62,0.00,CLR,,0.00,WeatherDisplay:10.37,2013-07-24 22:35:00,
2013-07-24 18:40:00,65.8,52.9,29.97,WSW,251,2.3,2.3,63,0.00,CLR,,0.00,WeatherDisplay:10.37,2013-07-24 22:40:00,
2013-07-24 18:45:00,66.1,53.6,29.98,SSW,203,1.1,0.0,64,0.00,CLR,,0.00,WeatherDisplay:10.37,2013-07-24 22:45:00,
2013-07-24 18:50:00,66.6,54.0,29.98,WNW,295,1.1,1.1,64,0.00,CLR,,0.00,WeatherDisplay:10.37,2013-07-24 22:50:00,
2013-07-24 18:55:00,66.4,53.0,29.98,WNW,297,3.5,3.5,62,0.00,CLR,,0.00,WeatherDisplay:10.37,2013-07-24 22:55:00,
2013-07-24 19:00:00,65.9,52.9,29.98,WSW,253,1.1,1.1,63,0.00,CLR,,0.00,WeatherDisplay:10.37,2013-07-24 23:00:00,
2013-07-24 19:05:00,66.2,54.5,29.98,SSE,151,0.0,0.0,66,0.00,CLR,,0.00,WeatherDisplay:10.37,2013-07-24 23:05:00,
2013-07-24 19:10:00,66.0,55.5,29.98,SSE,150,0.0,0.0,69,0.00,CLR,,0.00,WeatherDisplay:10.37,2013-07-24 23:10:00,
2013-07-24 19:15:00,65.4,53.7,29.98,SSE,150,0.0,0.0,66,0.00,CLR,,0.00,WeatherDisplay:10.37,2013-07-24 23:15:00,
2013-07-24 19:20:00,64.3,53.1,29.98,NNE,17,2.3,2.3,67,0.00,CLR,,0.00,WeatherDisplay:10.37,2013-07-24 23:20:00,
2013-07-24 19:25:00,63.4,53.4,29.98,WSW,238,0.0,0.0,70,0.00,CLR,,0.00,WeatherDisplay:10.37,2013-07-24 23:25:00,
2013-07-24 19:30:00,62.7,53.5,29.98,NW,316,1.1,0.0,72,0.00,CLR,,0.00,WeatherDisplay:10.37,2013-07-24 23:30:00,
2013-07-24 19:35:00,62.2,54.5,29.98,NW,316,0.0,0.0,76,0.00,CLR,,0.00,WeatherDisplay:10.37,2013-07-24 23:35:00,
2013-07-24 19:40:00,61.7,54.8,29.98,NW,316,0.0,0.0,78,0.00,CLR,,0.00,WeatherDisplay:10.37,2013-07-24 23:40:00,
2013-07-24 19:45:00,61.2,55.0,29.98,NW,316,0.0,0.0,80,0.00,CLR,,0.00,WeatherDisplay:10.37,2013-07-24 23:45:00,
2013-07-24 19:50:00,60.6,54.4,29.98,NW,316,0.0,0.0,80,0.00,CLR,,0.00,WeatherDisplay:10.37,2013-07-24 23:50:00,
2013-07-24 19:55:00,60.2,54.7,29.98,NW,316,0.0,0.0,82,0.00,CLR,,0.00,WeatherDisplay:10.37,2013-07-24 23:55:00,
2013-07-24 20:00:00,59.8,54.6,29.99,NW,316,0.0,0.0,83,0.00,CLR,,0.00,WeatherDisplay:10.37,2013-07-25 00:00:00,
2013-07-24 20:05:00,59.3,53.8,29.99,NW,316,0.0,0.0,82,0.00,CLR,,0.00,WeatherDisplay:10.37,2013-07-25 00:05:00,
2013-07-24 20:11:00,58.9,53.7,29.99,NW,316,0.0,0.0,83,0.00,CLR,,0.00,WeatherDisplay:10.37,2013-07-25 00:11:00,
2013-07-24 20:17:00,58.4,53.9,29.99,NW,316,0.0,0.0,85,0.00,CLR,,0.00,WeatherDisplay:10.37,2013-07-25 00:17:00,
2013-07-24 20:22:00,58.0,54.2,29.99,NW,316,0.0,0.0,87,0.00,CLR,,0.00,WeatherDisplay:10.37,2013-07-25 00:22:00,
2013-07-24 20:27:00,57.7,53.9,29.99,NW,316,0.0,0.0,87,0.00,CLR,,0.00,WeatherDisplay:10.37,2013-07-25 00:27:00,
2013-07-24 20:32:00,57.4,53.9,29.99,NW,316,0.0,0.0,88,0.00,CLR,,0.00,WeatherDisplay:10.37,2013-07-25 00:32:00,
2013-07-24 20:37:00,57.1,53.9,29.99,NW,316,0.0,0.0,89,0.00,CLR,,0.00,WeatherDisplay:10.37,2013-07-25 00:37:00,
2013-07-24 20:42:00,56.8,53.6,29.99,NW,316,0.0,0.0,89,0.00,CLR,,0.00,WeatherDisplay:10.37,2013-07-25 00:42:00,
2013-07-24 20:47:00,56.4,53.5,30.00,NW,316,0.0,0.0,90,0.00,CLR,,0.00,WeatherDisplay:10.37,2013-07-25 00:47:00,
2013-07-24 20:52:00,56.1,53.2,30.00,NW,316,0.0,0.0,90,0.00,CLR,,0.00,WeatherDisplay:10.37,2013-07-25 00:52:00,
2013-07-24 20:57:00,55.7,52.8,30.00,NW,316,0.0,0.0,90,0.00,CLR,,0.00,WeatherDisplay:10.37,2013-07-25 00:57:00,
2013-07-24 21:02:00,55.5,52.9,30.00,NW,316,0.0,0.0,91,0.00,,,0.00,WeatherDisplay:10.37,2013-07-25 01:02:00,
2013-07-24 21:07:00,55.3,52.4,30.00,NW,316,0.0,0.0,90,0.00,,,0.00,WeatherDisplay:10.37,2013-07-25 01:07:00,
2013-07-24 21:12:00,55.0,52.4,30.00,NW,316,0.0,0.0,91,0.00,,,0.00,WeatherDisplay:10.37,2013-07-25 01:12:00,
2013-07-24 21:17:00,54.6,52.0,30.00,NW,316,0.0,0.0,91,0.00,,,0.00,WeatherDisplay:10.37,2013-07-25 01:17:00,
2013-07-24 21:22:00,54.3,51.7,30.01,NW,316,0.0,0.0,91,0.00,,,0.00,WeatherDisplay:10.37,2013-07-25 01:22:00,
2013-07-24 21:23:00,54.2,51.6,30.01,NW,316,0.0,0.0,91,0.00,,,0.00,WeatherDisplay:10.37,2013-07-25 01:23:00,
2013-07-24 21:28:00,53.9,51.3,30.01,NW,316,0.0,0.0,91,0.00,,,0.00,WeatherDisplay:10.37,2013-07-25 01:28:00,
2013-07-24 21:34:00,53.7,51.1,30.01,NW,316,0.0,0.0,91,0.00,,,0.00,WeatherDisplay:10.37,2013-07-25 01:34:00,
2013-07-24 21:39:00,53.5,51.2,30.01,NW,316,0.0,0.0,92,0.00,,,0.00,WeatherDisplay:10.37,2013-07-25 01:39:00,
2013-07-24 21:44:00,53.3,51.0,30.01,NW,316,0.0,0.0,92,0.00,,,0.00,WeatherDisplay:10.37,2013-07-25 01:44:00,
2013-07-24 21:49:00,53.1,50.8,30.01,NW,316,0.0,0.0,92,0.00,,,0.00,WeatherDisplay:10.37,2013-07-25 01:49:00,
2013-07-24 21:54:00,52.9,50.6,30.01,NW,316,0.0,0.0,92,0.00,,,0.00,WeatherDisplay:10.37,2013-07-25 01:54:00,
2013-07-24 21:59:00,53.0,50.7,30.02,NW,316,0.0,0.0,92,0.00,,,0.00,WeatherDisplay:10.37,2013-07-25 01:59:00,
2013-07-24 22:04:00,53.0,50.7,30.02,NW,316,0.0,0.0,92,0.00,CLR,,0.00,WeatherDisplay:10.37,2013-07-25 02:04:00,
2013-07-24 22:09:00,52.8,50.5,30.02,NW,316,0.0,0.0,92,0.00,CLR,,0.00,WeatherDisplay:10.37,2013-07-25 02:09:00,
2013-07-24 22:14:00,52.6,50.3,30.02,NW,316,0.0,0.0,92,0.00,CLR,,0.00,WeatherDisplay:10.37,2013-07-25 02:14:00,
2013-07-24 22:19:00,52.4,50.1,30.02,NW,316,0.0,0.0,92,0.00,CLR,,0.00,WeatherDisplay:10.37,2013-07-25 02:19:00,
2013-07-24 22:24:00,52.4,50.1,30.02,NW,316,0.0,0.0,92,0.00,CLR,,0.00,WeatherDisplay:10.37,2013-07-25 02:24:00,
2013-07-24 22:29:00,52.2,49.9,30.02,NW,316,0.0,0.0,92,0.00,CLR,,0.00,WeatherDisplay:10.37,2013-07-25 02:29:00,
2013-07-24 22:34:00,52.1,49.8,30.02,NW,316,0.0,0.0,92,0.00,CLR,,0.00,WeatherDisplay:10.37,2013-07-25 02:34:00,
2013-07-24 22:39:00,52.0,49.7,30.02,NW,316,0.0,0.0,92,0.00,CLR,,0.00,WeatherDisplay:10.37,2013-07-25 02:39:00,
2013-07-24 22:44:00,51.8,49.5,30.02,NW,316,0.0,0.0,92,0.00,CLR,,0.00,WeatherDisplay:10.37,2013-07-25 02:44:00,
2013-07-24 22:49:00,51.5,49.3,30.02,NW,316,0.0,0.0,92,0.00,CLR,,0.00,WeatherDisplay:10.37,2013-07-25 02:49:00,
2013-07-24 22:54:00,51.4,49.2,30.03,NW,316,0.0,0.0,92,0.00,CLR,,0.00,WeatherDisplay:10.37,2013-07-25 02:54:00,
2013-07-24 22:59:00,51.6,49.1,30.03,NW,316,0.0,0.0,91,0.00,CLR,,0.00,WeatherDisplay:10.37,2013-07-25 02:59:00,
2013-07-24 23:04:00,51.5,49.0,30.03,NW,316,0.0,0.0,91,0.00,CLR,,0.00,WeatherDisplay:10.37,2013-07-25 03:04:00,
2013-07-24 23:09:00,51.4,48.9,30.03,NW,316,0.0,0.0,91,0.00,CLR,,0.00,WeatherDisplay:10.37,2013-07-25 03:09:00,
2013-07-24 23:14:00,51.3,48.8,30.03,NW,316,0.0,0.0,91,0.00,CLR,,0.00,WeatherDisplay:10.37,2013-07-25 03:14:00,
2013-07-24 23:19:00,51.3,48.8,30.03,NW,316,0.0,0.0,91,0.00,CLR,,0.00,WeatherDisplay:10.37,2013-07-25 03:19:00,
2013-07-24 23:24:00,51.2,48.7,30.03,NW,316,0.0,0.0,91,0.00,CLR,,0.00,WeatherDisplay:10.37,2013-07-25 03:24:00,
2013-07-24 23:30:00,51.0,48.5,30.04,NW,316,0.0,0.0,91,0.00,CLR,,0.00,WeatherDisplay:10.37,2013-07-25 03:30:00,
2013-07-24 23:35:00,51.0,48.5,30.04,NW,316,0.0,0.0,91,0.00,CLR,,0.00,WeatherDisplay:10.37,2013-07-25 03:35:00,
2013-07-24 23:40:00,51.1,48.6,30.04,NW,316,0.0,0.0,91,0.00,CLR,,0.00,WeatherDisplay:10.37,2013-07-25 03:40:00,
2013-07-24 23:45:00,51.1,48.6,30.04,NW,316,0.0,0.0,91,0.00,CLR,,0.00,WeatherDisplay:10.37,2013-07-25 03:45:00,
2013-07-24 23:50:00,51.0,48.5,30.04,NW,316,0.0,0.0,91,0.00,CLR,,0.00,WeatherDisplay:10.37,2013-07-25 03:50:00,
2013-07-24 23:55:00,51.0,48.5,30.04,NW,316,0.0,0.0,91,0.00,CLR,,0.00,WeatherDisplay:10.37,2013-07-25 03:55:00,